Location: Göttingen
(51.5413°N, 9.9158°E)
Time: 03:12:18
(UTC+02:00)

Envisat - Pass Details

Date: 28 January 2022
Orbit: 764 x 765 km, 98.2° (Epoch: 22 May)

Event Time Altitude Azimuth Distance (km) Brightness Sun altitude
Rises 05:40:40 0° 13° (NNE) 3,244 6.4 -22.3°
Reaches altitude 10° 05:42:59 10° 11° (NNE) 2,313 5.6 -21.9°
Maximum altitude 05:48:04 73° 288° (WNW) 802 2.8 -21.1°
Drops below altitude 10° 05:53:06 10° 204° (SSW) 2,298 5.3 -20.3°
Sets 05:55:24 0° 203° (SSW) 3,220 6.0 -20.0°
